Weather in Gremyachinsk

Russia / Perm Krai     58°33′45″N   57°51′07″E
temp.,
°C
wind,
m/s
gust,
m/s
humid.,
%
clouds,
%
prec.,
mm/h
press.,
hPa
HPBL,
m
28 february, sun
sun2823:00−20ese51290100 0.1 1013613
02:00−20e51290100 0.1 1012570
05:00−20e51290100 0.1 1012508
08:00−20e5129097 0.0 1012482
11:00−19e5119094 0.1 1012476
14:00−16e5118896 0.1 1012548
17:00−16e4109098 0.1 1012539
20:00−18e41094100 0.2 1014486
1 march, mon
mon123:00−18e3109193 0.3 1016454
02:00−19ene279481 0.0 1017266
05:00−20ne229483 0.0 101850
08:00−22nne129587 0.0 101920
11:00−16ene128679 0.0 1019280
14:00−11se118286 0.0 1017485
17:00−11sw108493 0.0 1017464
20:00−18sw119896 0.0 101620
2 march, tue
tue223:00−19s1210070 0.0 101520
02:00−20s23100100 0.1 101356
05:00−21s27100100 0.1 1011149
08:00−19s3999100 0.0 1008325
11:00−17s5994100 0.1 1007402
14:00−14s51093100 0.5 1004501
17:00−12s51094100 1.2 1003587
20:00−12ssw41095100 0.8 1002620
3 march, wed
wed323:00−14ssw3995100 1.3 1002500
02:00−14s2896100 0.3 1000355
05:00−14s2796100 0.6 1000334
08:00−14sse2597100 0.6 999257
11:00−12s2392100 1.0 998335
14:00−9ssw1289100 0.3 998404
17:00−8wsw1291100 0.6 998322
20:00−10wsw1197100 0.1 99821
4 march, thu
thu423:00−12nw1297100 0.3 99921
02:00−13wnw229795 0.0 99958
05:00−15wnw239895 0.1 100160
08:00−16wnw239893 0.1 100146
11:00−12w259390 0.1 1001338
14:00−8w3689100 0.1 1001731
17:00−8wsw4690100 0.3 1001824
20:00−11ssw31096100 0.1 1000390